Flag for Sudan Weather past 2 weeks in Khartoum, Sudan

Now
82 °F

Clear.


Feels Like: 88 °F
Forecast: 80 / 91 °F
Wind: 3 mph from Southwest

Location: Khartoum Airport

Current Time: Jul 30, 2014 at 11:27:51 PM

Latest Report: Jul 30, 2014 at 11:00 PM


Visibility: 10 mi

Pressure: 29.92 "Hg

Humidity: 74%

Dew point: 73 °F

Location of KhartoumLocation

Historic Weather in Khartoum — Graph

°F

Khartoum temperature yesterday

Maximum temperature yesterday: 99 °F (at 4:00 PM)
Minimum temperature yesterday: 81 °F (at 5:00 AM)
Average temperature yesterday: 89 °F

Past Weeks' High & Low Weather Summary

 TemperatureHumidityPressure
High102 °F (Jul 16, 3:00 PM)94% (Jul 25, 7:00 PM)30.01 "Hg (Jul 25, 7:00 PM)
Low72 °F (Jul 25, 7:00 PM)11% (Jul 16, 8:00 PM)29.74 "Hg (Jul 16, 4:30 PM)
Average87 °F55%29.87 "Hg
* Reported Jul 15 10:00 PM — Jul 30 10:30 PM, Khartoum, Weather by CustomWeather, © 2014

Note: Actual official high and low records may vary slightly from our data, if they occured in-between our weather recording intervals... More about our weather records

Advertising

Khartoum weather history for previous 24 hours

 ConditionsComfort  
Time TempWeatherWind HumidityBarometerVisibility
10:30 PM
Jul 30
N/AClear.3 mphN/A29.92 "Hg10 mi
10:00 PM84 °FWarm.3 mph66%29.89 "HgN/A
9:30 PMN/AClear.3 mphN/A29.89 "Hg10 mi
9:00 PM84 °FClear.6 mph66%29.89 "Hg10 mi
8:30 PMN/AClear.7 mphN/A29.86 "Hg10 mi
8:00 PM84 °FClear.5 mph66%29.86 "Hg10 mi
7:30 PMN/AClear.5 mphN/A29.83 "Hg10 mi
7:00 PM84 °FSunny.5 mph66%29.83 "Hg10 mi
6:30 PMN/ASunny.5 mphN/A29.83 "Hg10 mi
5:30 PMN/APassing clouds.7 mphN/A29.83 "HgN/A
5:00 PM84 °FPassing clouds.8 mph58%29.83 "HgN/A
4:30 PMN/APassing clouds.12 mphN/A29.83 "HgN/A
4:00 PM86 °FScattered clouds.8 mph59%29.89 "HgN/A
3:30 PMN/AScattered clouds.6 mphN/A29.86 "HgN/A
3:00 PM88 °FPassing clouds.8 mph55%29.86 "HgN/A
2:30 PMN/APassing clouds.8 mphN/A29.86 "HgN/A
2:00 PM82 °FPassing clouds.3 mph74%29.89 "HgN/A
1:30 PMN/APassing clouds.6 mphN/A29.89 "HgN/A
1:00 PM81 °FPassing clouds.9 mph74%29.92 "Hg10 mi
12:30 PMN/APassing clouds.5 mphN/A29.92 "HgN/A
12:00 PM79 °FPassing clouds.8 mph79%29.89 "HgN/A
11:00 AM79 °FPassing clouds.8 mph74%29.92 "HgN/A
10:30 AMN/APassing clouds.6 mphN/A29.92 "HgN/A
10:00 AM77 °FPassing clouds.8 mph79%29.92 "HgN/A
9:00 AM75 °FPassing clouds.8 mph83%29.89 "HgN/A
8:30 AMN/APartly sunny.14 mphN/A29.89 "HgN/A
8:00 AM75 °FPartly sunny.8 mph83%29.89 "HgN/A
7:30 AMN/ALight rain.5 mphN/A29.89 "HgN/A
7:00 AM75 °FLight rain. Partly sunny.9 mph83%29.89 "HgN/A
6:00 AM73 °FRain. Passing clouds.5 mph89%29.95 "HgN/A
5:30 AMN/APassing clouds.12 mphN/A29.95 "HgN/A
5:00 AM75 °FRain. Passing clouds.7 mph94%29.95 "HgN/A
4:30 AMN/ARain.7 mphN/A29.95 "HgN/A
3:30 AMN/AThunderstorms.9 mphN/AN/AN/A
3:00 AM75 °FThunderstorms. Passing clouds.8 mph83%29.95 "HgN/A
2:30 AMN/AThunderstorms.8 mphN/AN/AN/A
2:00 AM75 °FThunderstorms. Passing clouds.14 mph89%29.89 "HgN/A
12:00 AM91 °FPassing clouds.9 mph46%29.83 "HgN/A
11:30 PM
Jul 29
N/APassing clouds.7 mphN/A29.80 "HgN/A
11:00 PM91 °FPassing clouds.7 mph46%29.80 "HgN/A
Weather by CustomWeather, © 2014

See weather overviewHow to use our weather pages